Карточка аэропорта UATG

Внимание!
Информация на этой странице в стадии наполнения.
Если вы не увидели какой-то информации, или заметили неточность - пожалуйста сообщите нам!
Спасибо!
Команда RU-STAFF
Название аэропортаАтырау
Название аэропорта (англ.)Atyrau
Превышение-72 ft. (-21.9 m.)
Координаты47°7.332', 51°49.764'
Высота перехода1570
Эшелон переходаFL40
Коды ответчика3450-3457, 3560-3567
Зона ОрВДАктобе РПИ (UATT)
Данные METARUATG 170300Z 15007MPS CAVOK 10/02 Q1019 R14/CLRD70 NOSIG RMK QFE766/1021
Проноз погоды (TAF)UATG 162300Z 1700/1724 13006MPS CAVOK TX19/1711Z TN07/1703Z BECMG 1706/1708 14011MPS BECMG 1711/1712 9999 SCT033CB
NOTAMshow/hide NOTAM
AWOS   TABLE

Информация о ВПП

ВПП Длина ВПП (м.) Покрытие Курс ВПП Частота ILS
323000Асфальтобетон329108.3
143000Асфальтобетон149109.9

Диспетчерские позиции

Позывной Наименование органа УВД Частота
UATG_APPАтырау Подход123.7
UATG_TWRАтырау Вышка118.1



Спутниковое изображение